This demonstration page uses our WeatherBlox Daily Observations layout. Learn more.

Left ArrowRight Arrow

Hourly Observations for February 5, 2015

Temp ( °F °C ) Dew Point ( °F °C ) Humidity (%) Winds ( mph kmh ) Pressure ( in mb ) Visibility ( mi km ) Precip ( " mm )
12:53 am 00:53 Cloudy 35 1.7 27 -2.8 72 72 N 16 26 30.36 1028 10 16 0.00 0.00
1:48 am 01:48 Cloudy 34 1 28 -2 81 81 NNE 12 19 30.48 1032 8 13 0.00 0.00
1:53 am 01:53 Cloudy 34 1.1 28 -2.2 79 79 NNE 10 17 30.34 1028 9 14 0.00 0.00
2:53 am 02:53 Cloudy 34 1.1 28 -2.2 79 79 NNE 8 13 30.32 1027 7 11 0.00 0.00
3:53 am 03:53 Cloudy with Haze 33 0.6 28 -2.2 82 82 NNE 8 13 30.31 1027 5 8 0.00 0.00
4:26 am 04:26 Cloudy 34 1 28 -2 81 81 NNE 9 15 30.45 1031 10 16 0.00 0.00
4:53 am 04:53 Cloudy 34 1.1 27 -2.8 76 76 N 7 11 30.31 1026 10 16 0.00 0.00
5:53 am 05:53 Cloudy 34 1.1 27 -2.8 76 76 NNE 6 9 30.32 1027 9 14 0.00 0.00
6:53 am 06:53 Cloudy 34 1.1 27 -2.8 76 76 NNE 6 9 30.37 1029 10 16 0.00 0.00
7:53 am 07:53 Cloudy 34 1.1 27 -2.8 76 76 NE 6 9 30.40 1029 9 14 0.00 0.00
8:17 am 08:17 Cloudy 34 1.1 27 -2.8 76 76 ENE 5 7 30.48 1032 10 16 0.00 0.00
8:39 am 08:39 Cloudy 34 1.1 27 -2.8 76 76 ESE 3 6 30.48 1032 10 16 0.00 0.00
8:53 am 08:53 Cloudy 35 1.7 28 -2.2 76 76 E 3 6 30.40 1030 10 16 0.00 0.00
9:53 am 09:53 Cloudy 35 1.7 27 -2.8 72 72 Calm 30.41 1030 10 16 0.00 0.00
10:53 am 10:53 Cloudy 37 2.8 28 -2.2 70 70 Calm 30.41 1030 10 16 0.00 0.00
11:53 am 11:53 Cloudy 38 3.3 28 -2.2 68 68 VRB 5 7 30.40 1029 10 16 0.00 0.00
12:53 pm 12:53 Cloudy 39 3.9 29 -1.7 67 67 SSE 6 9 30.36 1028 10 16 0.00 0.00
1:53 pm 13:53 Mostly Cloudy 41 5 30 -1.1 65 65 S 8 13 30.31 1027 10 16 0.00 0.00
2:17 pm 14:17 Mostly Sunny 42 5.6 29 -1.7 60 60 Calm 30.33 1027 10 16 0.00 0.00
2:53 pm 14:53 Sunny 45 7.2 30 -1.1 56 56 SSW 6 9 30.27 1025 10 16 0.00 0.00
3:53 pm 15:53 Sunny 45 7.2 30 -1.1 56 56 S 5 7 30.26 1025 10 16 0.00 0.00
4:53 pm 16:53 Sunny 47 8.3 31 -0.6 54 54 S 6 9 30.24 1024 10 16 0.00 0.00
5:53 pm 17:53 Sunny 46 7.8 31 -0.6 56 56 SSE 7 11 30.24 1024 10 16 0.00 0.00
6:53 pm 18:53 Clear 43 6.1 31 -0.6 63 63 SE 7 11 30.25 1024 10 16 0.00 0.00
7:53 pm 19:53 Clear 39 3.9 30 -1.1 70 70 SE 8 13 30.28 1025 10 16 0.00 0.00
8:53 pm 20:53 Clear 37 2.8 30 -1.1 76 76 SSE 7 11 30.30 1026 10 16 0.00 0.00
9:53 pm 21:53 Clear 36 2.2 30 -1.1 79 79 SE 7 11 30.31 1026 10 16 0.00 0.00
10:53 pm 22:53 Clear 33 0.6 28 -2.2 82 82 SE 6 9 30.32 1027 10 16 0.00 0.00
11:53 pm 23:53 Clear 33 0.6 28 -2.2 82 82 E 3 6 30.31 1027 9 14 0.00 0.00

Powered by AerisWeather